VRSS-1

导读

VRSS-1是委内瑞拉(VE)的首颗国产遥感卫星,于北京时间2012年9月29日成功发射。这颗卫星由中国帮助委内瑞拉研制,配备了光学成像系统,空间分辨率达2.5米,主要用于国土资源普查、农业监测、灾害评估、城市规划等领域,推动委内瑞拉航天技术发展,提升其自主遥感观测能力,是委中航天合作的重要成果。

基本信息
目录编号:
38782
目录名称:
VRSS-1
国际标识:
2012-052A
轨道中心:
EARTH
卫星名称:
VRSS-1
卫星全名:
--
卫星状态:
在轨 (已飞行5098 天)
发射日期:
2012-09-29 UTC
国别 :
(VE)
星等 :
--
该卫星已列入 空间交会检测服务 Space Conjunction Data Service (SCDS) ,当前飞行风险评估等级: 高风险
轨道信息
数据来源 国际轨道数据 AOE轨道数据
星历时间 2026-09-14T05:58:45+0800
6小时前
查看轨道信息
2026-09-10T12:00:00+0800
4天前
查看轨道信息
半长轴 7006.971km 7006.973km
偏心率 0.0016701 0.0016866
轨道倾角 97.626° 97.629°
近地点辐角 311.162° 323.895°
升交点赤经 228.759° 225.198°
平近点角 48.816° 230.926°
近地点 617.131km 617.018km
远地点 640.537km 640.654km
周期 97.287分钟 97.287分钟
每日圈数 14.801555 14.801548
详细信息
使用方式:
暂无
2D轨道图
3D轨道图
轨道高度分析图
轨道倾角分析图
轨道综合分析图
查看轨道综合分析图
交会数据列表
事件ID 空间交会对象 最接近时刻(TCA) 交会距离 交会风险概率(CRP) 交会风险指数(CRI) 操作
CDM_260914-003603-878206-777829
VRSS-1 (38782)
2026-09-14T
00:36:47+0000
0.465 km
远距离
2.304064E-4 高风险 0.82
CDM_260916-143201-403303-878222
VRSS-1 (38782)
2026-09-16T
14:32:03+0000
1.167 km
极远距离
1.608057E-5 中风险 0.59
CDM_260912-184903-195503-878226
VRSS-1 (38782)
2026-09-12T
18:49:45+0000
1.567 km
极远距离
3.490249E-6 低风险 0.46
CDM_260916-043403-878205-496622
VRSS-1 (38782)
2026-09-16T
04:34:23+0000
2.045 km
极远距离
2.686033E-6 低风险 0.44
CDM_260914-141803-878206-779123
VRSS-1 (38782)
2026-09-14T
14:18:21+0000
2.730 km
极远距离
1.498295E-6 低风险 0.39
CDM_260916-135503-878203-991421
VRSS-1 (38782)
2026-09-16T
13:55:20+0000
1.756 km
极远距离
1.369309E-6 低风险 0.38
与全量物体交会距离演化趋势 订阅飞行安全评估服务
与全量物体交会风险概率演化趋势 订阅飞行安全评估服务